SCP
0 -0 0 -0 0 0 0 0 0 0 1 1 1 1 0 1 2 2 2 1 1 2 4 5 1 -1 2 1 0 0 0 0 0 0 1 1 1 1 1 1 1 1 1 1
0 0 0 0 0 0 0 0 0 0 0 -0 -0 0 0 0 1 0 1 1 1 1 2 4 6 7 5 4 2 2 1 0 1 1 1 1 1 1 1 1 1 1 1 1
0 0 0 0 0 0 0 0 0 0 0 0 1 1 1 1 1 1 0 0 0 0 1 2 3 5 3 4 4 3 3 2 1 1 1 1 1 1 1 1 2 2 2 1
0 0 0 0 0 0 0 0 0 0 0 0 1 1 0 0 0 0 0 0 0 0 0 1 2 1 2 2 4 5 3 2 2 1 1 2 2 2 2 2 2 2 2 2
0 0 0 0 0 0 0 0 1 1 1 1 1 0 2 1 0 0 0 0 0 0 0 0 1 0 0 1 2 2 2 2 2 1 1 1 1 2 3 3 3 2 2 2
0 0 0 0 0 0 0 0 0 1 1 1 1 0 1 1 0 0 0 0 0 0 0 0 0 1 1 1 2 3 2 2 2 2 1 1 1 1 2 2 2 2 2 2
0 0 0 0 0 0 0 0 0 0 0 0 1 1 0 0 -0 0 0 0 0 1 1 0 0 0 1 1 1 2 3 3 3 2 2 2 2 2 2 2 2 2 2 2
0 0 0 0 0 0 1 0 0 0 0 0 0 1 1 0 0 0 0 0 0 0 0 0 1 0 1 1 0 1 1 2 3 3 2 1 1 2 2 2 2 2 2 2
0 0 0 0 0 0 0 0 0 0 0 0 0 0 0 0 0 0 0 0 0 0 1 0 0 0 0 0 0 1 2 3 2 2 2 3 3 3 3 3 3 2 2 1
0 0 0 0 -0 -0 0 0 0 0 0 0 0 0 0 0 0 0 0 1 0 0 0 0 1 0 0 0 0 1 2 2 2 2 1 3 3 3 3 3 2 2 1 2
0 0 0 0 0 0 0 0 0 0 1 1 0 0 0 0 0 0 0 0 1 0 0 1 1 0 0 0 0 1 1 2 1 1 1 1 2 1 1 0 0 1 1 1
0 0 0 0 0 1 0 0 0 0 0 1 1 0 0 0 0 0 0 0 0 0 0 0 1 0 0 0 0 0 1 1 1 1 1 1 1 0 0 0 0 0 0 0
0 0 0 0 0 0 0 0 0 0 0 0 0 0 0 0 0 0 0 0 0 0 0 0 0 0 0 0 0 0 0 0 0 1 2 1 0 0 0 0 0 0 0 0
0 0 0 0 0 0 0 0 0 0 0 0 0 0 0 0 0 0 0 0 0 0 0 0 0 0 0 0 0 0 0 0 0 0 0 0 1 1 0 0 -0 0 0 0
0 0 0 0 0 0 0 0 0 0 0 0 0 0 0 0 0 0 0 0 0 0 0 0 0 0 0 0 0 0 0 0 0 0 0 0 0 0 0 0 0 0 0 0
0 0 0 0 0 0 0 -0 0 0 0 0 0 0 0 0 0 0 0 0 0 0 0 0 0 0 0 0 0 0 0 0 0 0 0 0 0 0 0 0 0 0 0 0
0 0 0 0 0 0 0 0 0 -0 0 0 0 0 0 0 0 0 0 -0 0 0 0 0 0 0 0 0 0 0 0 0 0 0 0 0 0 0 0 0 0 0 0 0
0 0 0 0 0 0 0 0 0 0 0 0 0 0 0 0 0 0 0 0 0 0 0 0 0 0 0 0 0 0 0 0 0 0 0 0 0 0 0 0 0 0 0 0
0 0 0 0 0 0 0 0 0 0 0 0 0 0 0 0 0 0 0 0 0 0 0 0 0 -0 -0 -0 0 0 0 0 0 0 0 0 0 0 0 0 0 0 0 0
0 0 0 0 0 0 0 -0 -0 0 0 0 0 0 0 0 -0 -0 -0 0 0 0 0 0 0 -0 -0 -0 -0 0 0 0 0 0 0 0 0 0 0 0 0 0 0 0
0 0 0 0 0 0 0 -0 0 0 0 0 0 0 0 0 0 0 -0 -0 0 0 -0 -0 0 0 -0 0 0 0 0 0 0 0 0 0 0 0 0 0 0 0 0 0
0 0 0 0 0 0 0 0 0 0 0 0 0 0 0 0 0 0 0 0 0 0 0 0 0 0 -0 -0 -0 -0 -0 0 0 0 0 0 0 0 0 0 0 0 0 0
0 0 0 0 0 0 0 0 0 0 0 0 0 0 0 0 0 0 0 0 0 0 0 0 0 0 -0 -0 -0 -0 -0 0 0 0 0 0 0 0 0 0 0 0 0 0
0 0 0 0 0 0 0 0 0 0 0 0 0 0 0 0 0 0 0 0 -0 0 0 0 0 0 0 0 -0 -0 -0 -0 -0 -0 -0 0 0 0 0 0 0 0 0 0
0 0 0 0 0 0 0 0 0 0 0 0 0 0 0 0 0 0 0 0 0 0 -0 0 0 0 0 -0 -0 0 -0 -0 -0 -0 -0 -0 -0 -0 0 -0 0 0 0 0
0 0 -0 -0 -0 0 0 0 0 0 0 0 0 0 0 0 0 0 0 0 0 0 0 0 0 0 0 0 0 0 -0 -0 -0 -0 -0 -0 -0 -0 -0 -0 -0 -0 0 0
-0 -0 -0 -0 -0 -0 -0 -0 -0 0 0 0 0 0 0 0 0 0 0 0 0 0 0 0 0 0 0 0 -0 -0 0 0 0 0 0 0 -0 -0 -0 -0 -0 -0 -0 -0
Wind_Speed_500mb
34 28 9 27 30 22 23 26 22 6 27 23 23 12 20 26 35 33 29 33 37 43 40 33 22 4 41 45 46 47 50 49 48 50 51 50 48 45 43 40 38 35 34 33
35 36 12 24 16 5 16 23 25 24 35 26 43 30 17 15 16 25 31 35 36 35 35 35 35 20 13 15 20 22 41 50 47 44 47 48 48 44 43 42 39 36 35 34
30 25 31 27 27 22 21 22 21 21 27 13 24 26 19 16 13 15 18 28 36 35 33 26 23 22 1 11 12 22 25 26 39 41 42 45 46 46 47 46 41 39 37 35
21 20 34 28 29 35 24 30 19 26 8 27 19 18 15 14 19 18 19 21 26 32 29 24 21 22 21 19 17 16 30 39 33 38 45 46 48 50 52 50 46 41 39 35
20 24 24 31 17 11 15 18 31 19 23 37 29 15 44 26 23 20 21 18 21 27 20 26 16 25 19 10 26 34 27 33 44 50 50 49 47 49 49 48 46 44 39 36
18 24 33 20 18 19 16 8 29 28 30 34 31 12 13 22 21 23 20 17 22 22 19 14 14 13 16 16 14 23 27 30 33 33 36 37 39 37 39 40 43 41 36 34
21 18 6 16 14 9 14 5 18 20 20 20 13 14 20 18 17 17 18 18 16 16 18 19 14 2 6 15 21 23 31 29 28 32 31 33 34 34 34 36 36 33 37 32
19 24 22 17 5 7 8 14 15 18 20 19 18 20 19 13 11 12 15 14 15 19 20 16 13 9 4 15 10 14 26 31 19 20 28 25 32 35 31 29 29 36 38 34
14 8 15 21 26 15 10 7 10 9 10 8 10 9 11 11 16 10 16 19 18 16 19 19 18 15 9 8 3 6 6 8 20 28 27 32 23 31 30 34 32 31 29 32
10 13 7 12 20 10 7 9 8 7 6 2 4 8 10 11 10 11 12 14 21 20 25 25 22 18 16 7 10 8 4 6 13 16 24 22 20 20 28 30 29 32 35 34
10 17 17 12 13 16 10 3 4 8 6 4 5 4 4 6 8 8 11 11 17 20 20 26 26 23 20 15 2 5 1 7 14 15 15 14 20 20 29 35 33 31 33 35
4 8 4 9 9 7 4 8 4 9 12 8 12 9 3 9 4 13 11 12 9 22 22 25 25 27 15 14 12 1 7 4 9 8 19 17 18 22 26 28 28 29 32 34
7 4 9 2 3 9 12 16 15 15 15 14 16 12 11 11 7 14 9 12 15 15 20 25 26 28 26 13 8 6 4 7 9 5 6 8 7 3 15 23 29 33 34 33
4 6 8 10 10 12 18 17 13 11 12 22 23 17 16 10 9 8 7 20 17 18 13 21 27 31 28 18 11 7 10 11 7 15 13 14 7 3 9 12 19 25 23 18
16 11 8 4 8 12 13 14 19 23 22 28 19 19 20 19 13 8 11 17 20 20 23 20 26 30 26 18 12 8 8 8 6 6 9 12 18 17 12 11 12 22 16 20
19 16 15 16 17 18 20 24 24 23 32 31 25 14 14 16 18 10 4 13 14 23 26 22 21 30 31 18 14 9 7 8 6 7 6 5 3 3 9 10 5 12 8 18
20 18 19 24 23 25 28 27 22 23 23 24 24 20 11 9 15 14 9 1 17 15 13 22 22 30 35 19 12 13 9 9 8 8 6 5 3 5 3 3 2 5 5 8
11 10 11 12 16 13 17 17 12 20 28 32 23 20 17 19 22 17 11 10 10 10 13 17 20 33 30 24 14 8 8 6 8 10 7 5 4 4 7 7 7 11 15 18
9 9 9 10 8 9 7 10 9 9 12 24 22 20 16 20 23 14 7 4 7 12 11 16 17 33 26 26 19 13 12 9 4 6 6 6 4 2 4 6 7 5 9 14
11 11 11 11 12 7 7 5 5 10 16 20 31 22 17 17 15 19 20 15 13 18 17 7 17 31 34 26 23 15 7 8 5 2 6 5 3 6 4 2 3 6 9 11
13 12 14 13 13 11 3 5 12 16 21 20 17 19 19 16 20 13 20 21 16 11 16 8 5 14 24 31 20 13 10 11 11 10 9 10 6 7 8 6 6 6 4 2
15 14 15 13 15 14 12 16 20 20 19 14 14 15 15 14 18 23 22 21 16 15 11 17 26 21 6 9 19 23 26 23 23 21 20 18 19 14 13 14 14 14 13 13
18 19 17 17 18 19 18 18 19 21 21 25 27 21 17 11 11 17 20 18 15 17 13 16 20 20 19 6 16 30 31 34 35 32 33 31 28 27 28 27 31 25 25 24
22 23 22 21 18 17 17 26 22 24 27 29 18 16 22 16 13 10 13 20 30 28 21 22 19 18 18 17 18 22 31 37 41 39 38 38 38 34 35 37 42 42 37 33
22 23 23 21 23 22 26 24 27 25 24 30 14 12 15 19 22 21 11 10 13 12 9 17 22 22 18 19 20 22 21 25 36 38 43 43 41 37 34 36 40 41 41 40
27 22 23 24 21 23 23 21 22 18 19 18 16 16 15 14 13 10 10 8 9 10 11 12 10 20 14 15 15 17 17 22 23 21 24 32 41 43 40 38 37 30 33 41
20 20 24 26 20 24 21 19 18 18 14 17 17 14 11 10 11 13 11 11 10 7 7 13 14 14 13 10 11 14 14 16 20 17 17 20 21 26 29 34 36 36 37 35
Wind_Direction_500mb
296 298 282 299 197 218 234 271 282 211 94 94 51 41 50 33 11 26 23 9 3 1 20 47 136 161 180 190 198 204 213 223 235 231 235 241 247 247 249 249 252 254 254 244
290 295 252 259 278 245 201 244 273 296 97 111 154 144 59 38 25 15 15 9 360 352 353 18 37 60 104 167 188 176 215 219 225 236 241 240 242 246 248 249 251 254 257 250
264 273 279 255 241 245 231 245 272 280 87 60 77 57 45 13 19 14 14 359 351 345 343 342 21 8 196 185 191 227 200 210 224 229 237 236 237 238 242 246 247 249 254 258
267 261 244 261 260 228 257 248 313 272 94 92 64 46 50 24 14 10 4 7 345 331 331 332 335 340 273 237 204 196 244 238 231 238 237 238 234 236 239 237 241 242 250 254
240 253 263 270 332 208 208 88 34 14 30 48 37 349 55 48 29 10 356 354 356 340 341 340 313 313 305 279 250 228 227 239 236 236 240 234 237 235 237 235 235 241 246 250
249 249 247 59 49 9 17 187 37 39 32 17 4 339 45 11 9 1 354 359 5 352 336 302 295 318 334 301 241 236 239 235 244 229 241 235 236 237 236 236 238 237 241 239
226 245 198 48 63 10 220 81 43 47 55 40 26 4 351 1 10 4 359 356 10 10 346 345 317 186 359 297 247 201 194 204 228 241 230 231 235 236 235 233 230 237 234 235
240 244 229 13 269 347 77 83 47 34 32 21 4 350 356 18 1 24 354 342 350 25 355 344 2 215 303 293 288 245 226 212 194 207 219 243 247 227 224 224 224 230 241 233
15 59 98 72 86 83 68 63 46 19 10 13 357 329 337 318 309 321 3 352 339 9 22 9 21 9 277 312 249 125 93 213 218 234 239 226 229 221 218 216 223 226 229 230
358 132 100 127 129 121 92 57 41 353 327 330 317 312 317 321 335 343 3 358 356 7 4 4 10 4 4 302 207 178 143 170 198 219 226 246 231 243 226 223 230 236 232 222
261 276 282 248 259 264 175 70 332 326 296 237 160 187 85 55 21 341 357 5 5 8 12 7 8 6 12 11 298 199 300 293 306 242 217 219 211 198 214 220 230 235 233 232
248 85 17 49 19 25 177 234 271 271 263 211 141 124 121 74 68 13 348 305 7 17 12 11 353 352 4 29 31 137 184 357 42 289 257 270 260 263 254 261 271 270 265 258
265 43 122 223 180 246 249 249 233 260 259 210 142 104 143 88 91 79 37 21 6 4 9 3 349 340 353 6 18 2 341 258 208 164 87 4 302 292 309 305 296 296 301 273
198 130 184 224 266 259 262 252 231 224 189 174 165 144 113 95 103 76 27 39 25 14 21 20 350 345 344 354 356 340 330 324 280 250 209 195 184 246 316 325 329 314 305 260
186 197 230 206 207 230 244 233 227 212 180 166 156 156 147 129 89 59 63 64 50 32 20 33 350 342 341 340 346 332 337 351 323 294 282 276 257 233 266 293 310 316 282 242
196 216 236 245 254 251 235 241 234 223 204 197 178 162 95 122 115 98 39 14 16 27 21 6 2 349 350 344 340 322 285 287 306 334 310 293 342 323 256 291 284 256 260 220
210 216 240 250 254 252 249 245 242 247 213 179 181 191 158 124 89 69 23 213 11 349 8 20 2 343 357 344 5 337 335 276 246 256 249 238 46 104 136 134 96 148 156 138
216 246 257 253 251 250 259 205 242 233 211 204 171 153 163 142 122 105 75 28 356 353 351 46 6 347 356 359 4 356 337 313 265 261 260 248 240 156 136 142 145 182 171 155
192 192 199 205 203 207 224 225 234 256 214 165 159 152 160 152 137 106 117 74 23 12 20 48 7 344 354 12 18 2 354 333 283 239 250 282 289 190 189 165 173 199 185 199
164 168 177 183 151 195 203 180 208 189 157 154 158 147 156 154 143 111 122 103 57 28 20 86 40 6 6 0 15 7 319 289 295 81 97 63 51 90 82 123 199 206 236 261
157 162 175 177 180 185 132 127 130 127 136 142 148 150 152 129 110 164 116 85 84 63 12 54 118 42 360 9 13 19 43 49 49 52 72 70 69 102 99 92 98 81 69 55
147 155 162 160 160 159 133 119 122 128 141 137 124 132 139 135 117 99 100 93 83 71 54 71 104 102 154 14 22 41 53 58 62 61 64 74 80 72 71 87 84 85 87 86
148 142 134 135 142 145 133 126 129 134 133 151 140 127 118 107 158 134 112 104 95 87 70 96 96 95 88 18 23 35 51 62 64 66 68 68 73 81 84 82 81 81 88 86
138 132 125 132 132 138 146 148 137 137 146 131 142 149 85 87 91 119 119 101 87 75 87 93 85 89 83 81 61 28 39 62 66 67 68 69 68 72 82 85 84 82 78 80
132 136 134 129 132 123 118 127 128 124 123 133 111 124 123 137 117 118 101 106 57 86 84 51 52 54 60 58 65 81 64 46 55 59 63 66 65 64 62 70 78 80 76 75
137 139 146 143 146 143 144 147 137 135 134 127 122 123 118 113 121 106 123 105 97 81 52 37 30 47 55 64 73 72 69 67 68 52 44 50 53 52 54 62 59 65 70 70
139 152 139 149 148 138 160 165 155 151 146 157 146 132 126 130 132 132 119 107 90 70 28 23 31 15 54 47 68 73 76 87 95 83 77 71 52 46 47 44 37 49 49 51
Wind_Speed_850mb
34 28 9 27 30 22 23 26 22 6 27 23 23 12 20 26 35 33 29 33 37 43 40 33 22 4 41 45 46 47 50 49 48 50 51 50 48 45 43 40 38 35 34 33
35 36 12 24 16 5 16 23 25 24 35 26 43 30 17 15 16 25 31 35 36 35 35 35 35 20 13 15 20 22 41 50 47 44 47 48 48 44 43 42 39 36 35 34
30 25 31 27 27 22 21 22 21 21 27 13 24 26 19 16 13 15 18 28 36 35 33 26 23 22 1 11 12 22 25 26 39 41 42 45 46 46 47 46 41 39 37 35
21 20 34 28 29 35 24 30 19 26 8 27 19 18 15 14 19 18 19 21 26 32 29 24 21 22 21 19 17 16 30 39 33 38 45 46 48 50 52 50 46 41 39 35
20 24 24 31 17 11 15 18 31 19 23 37 29 15 44 26 23 20 21 18 21 27 20 26 16 25 19 10 26 34 27 33 44 50 50 49 47 49 49 48 46 44 39 36
18 24 33 20 18 19 16 8 29 28 30 34 31 12 13 22 21 23 20 17 22 22 19 14 14 13 16 16 14 23 27 30 33 33 36 37 39 37 39 40 43 41 36 34
21 18 6 16 14 9 14 5 18 20 20 20 13 14 20 18 17 17 18 18 16 16 18 19 14 2 6 15 21 23 31 29 28 32 31 33 34 34 34 36 36 33 37 32
19 24 22 17 5 7 8 14 15 18 20 19 18 20 19 13 11 12 15 14 15 19 20 16 13 9 4 15 10 14 26 31 19 20 28 25 32 35 31 29 29 36 38 34
14 8 15 21 26 15 10 7 10 9 10 8 10 9 11 11 16 10 16 19 18 16 19 19 18 15 9 8 3 6 6 8 20 28 27 32 23 31 30 34 32 31 29 32
10 13 7 12 20 10 7 9 8 7 6 2 4 8 10 11 10 11 12 14 21 20 25 25 22 18 16 7 10 8 4 6 13 16 24 22 20 20 28 30 29 32 35 34
10 17 17 12 13 16 10 3 4 8 6 4 5 4 4 6 8 8 11 11 17 20 20 26 26 23 20 15 2 5 1 7 14 15 15 14 20 20 29 35 33 31 33 35
4 8 4 9 9 7 4 8 4 9 12 8 12 9 3 9 4 13 11 12 9 22 22 25 25 27 15 14 12 1 7 4 9 8 19 17 18 22 26 28 28 29 32 34
7 4 9 2 3 9 12 16 15 15 15 14 16 12 11 11 7 14 9 12 15 15 20 25 26 28 26 13 8 6 4 7 9 5 6 8 7 3 15 23 29 33 34 33
4 6 8 10 10 12 18 17 13 11 12 22 23 17 16 10 9 8 7 20 17 18 13 21 27 31 28 18 11 7 10 11 7 15 13 14 7 3 9 12 19 25 23 18
16 11 8 4 8 12 13 14 19 23 22 28 19 19 20 19 13 8 11 17 20 20 23 20 26 30 26 18 12 8 8 8 6 6 9 12 18 17 12 11 12 22 16 20
19 16 15 16 17 18 20 24 24 23 32 31 25 14 14 16 18 10 4 13 14 23 26 22 21 30 31 18 14 9 7 8 6 7 6 5 3 3 9 10 5 12 8 18
20 18 19 24 23 25 28 27 22 23 23 24 24 20 11 9 15 14 9 1 17 15 13 22 22 30 35 19 12 13 9 9 8 8 6 5 3 5 3 3 2 5 5 8
11 10 11 12 16 13 17 17 12 20 28 32 23 20 17 19 22 17 11 10 10 10 13 17 20 33 30 24 14 8 8 6 8 10 7 5 4 4 7 7 7 11 15 18
9 9 9 10 8 9 7 10 9 9 12 24 22 20 16 20 23 14 7 4 7 12 11 16 17 33 26 26 19 13 12 9 4 6 6 6 4 2 4 6 7 5 9 14
11 11 11 11 12 7 7 5 5 10 16 20 31 22 17 17 15 19 20 15 13 18 17 7 17 31 34 26 23 15 7 8 5 2 6 5 3 6 4 2 3 6 9 11
13 12 14 13 13 11 3 5 12 16 21 20 17 19 19 16 20 13 20 21 16 11 16 8 5 14 24 31 20 13 10 11 11 10 9 10 6 7 8 6 6 6 4 2
15 14 15 13 15 14 12 16 20 20 19 14 14 15 15 14 18 23 22 21 16 15 11 17 26 21 6 9 19 23 26 23 23 21 20 18 19 14 13 14 14 14 13 13
18 19 17 17 18 19 18 18 19 21 21 25 27 21 17 11 11 17 20 18 15 17 13 16 20 20 19 6 16 30 31 34 35 32 33 31 28 27 28 27 31 25 25 24
22 23 22 21 18 17 17 26 22 24 27 29 18 16 22 16 13 10 13 20 30 28 21 22 19 18 18 17 18 22 31 37 41 39 38 38 38 34 35 37 42 42 37 33
22 23 23 21 23 22 26 24 27 25 24 30 14 12 15 19 22 21 11 10 13 12 9 17 22 22 18 19 20 22 21 25 36 38 43 43 41 37 34 36 40 41 41 40
27 22 23 24 21 23 23 21 22 18 19 18 16 16 15 14 13 10 10 8 9 10 11 12 10 20 14 15 15 17 17 22 23 21 24 32 41 43 40 38 37 30 33 41
20 20 24 26 20 24 21 19 18 18 14 17 17 14 11 10 11 13 11 11 10 7 7 13 14 14 13 10 11 14 14 16 20 17 17 20 21 26 29 34 36 36 37 35
Wind_Direction_850mb
296 298 282 299 197 218 234 271 282 211 94 94 51 41 50 33 11 26 23 9 3 1 20 47 136 161 180 190 198 204 213 223 235 231 235 241 247 247 249 249 252 254 254 244
290 295 252 259 278 245 201 244 273 296 97 111 154 144 59 38 25 15 15 9 360 352 353 18 37 60 104 167 188 176 215 219 225 236 241 240 242 246 248 249 251 254 257 250
264 273 279 255 241 245 231 245 272 280 87 60 77 57 45 13 19 14 14 359 351 345 343 342 21 8 196 185 191 227 200 210 224 229 237 236 237 238 242 246 247 249 254 258
267 261 244 261 260 228 257 248 313 272 94 92 64 46 50 24 14 10 4 7 345 331 331 332 335 340 273 237 204 196 244 238 231 238 237 238 234 236 239 237 241 242 250 254
240 253 263 270 332 208 208 88 34 14 30 48 37 349 55 48 29 10 356 354 356 340 341 340 313 313 305 279 250 228 227 239 236 236 240 234 237 235 237 235 235 241 246 250
249 249 247 59 49 9 17 187 37 39 32 17 4 339 45 11 9 1 354 359 5 352 336 302 295 318 334 301 241 236 239 235 244 229 241 235 236 237 236 236 238 237 241 239
226 245 198 48 63 10 220 81 43 47 55 40 26 4 351 1 10 4 359 356 10 10 346 345 317 186 359 297 247 201 194 204 228 241 230 231 235 236 235 233 230 237 234 235
240 244 229 13 269 347 77 83 47 34 32 21 4 350 356 18 1 24 354 342 350 25 355 344 2 215 303 293 288 245 226 212 194 207 219 243 247 227 224 224 224 230 241 233
15 59 98 72 86 83 68 63 46 19 10 13 357 329 337 318 309 321 3 352 339 9 22 9 21 9 277 312 249 125 93 213 218 234 239 226 229 221 218 216 223 226 229 230
358 132 100 127 129 121 92 57 41 353 327 330 317 312 317 321 335 343 3 358 356 7 4 4 10 4 4 302 207 178 143 170 198 219 226 246 231 243 226 223 230 236 232 222
261 276 282 248 259 264 175 70 332 326 296 237 160 187 85 55 21 341 357 5 5 8 12 7 8 6 12 11 298 199 300 293 306 242 217 219 211 198 214 220 230 235 233 232
248 85 17 49 19 25 177 234 271 271 263 211 141 124 121 74 68 13 348 305 7 17 12 11 353 352 4 29 31 137 184 357 42 289 257 270 260 263 254 261 271 270 265 258
265 43 122 223 180 246 249 249 233 260 259 210 142 104 143 88 91 79 37 21 6 4 9 3 349 340 353 6 18 2 341 258 208 164 87 4 302 292 309 305 296 296 301 273
198 130 184 224 266 259 262 252 231 224 189 174 165 144 113 95 103 76 27 39 25 14 21 20 350 345 344 354 356 340 330 324 280 250 209 195 184 246 316 325 329 314 305 260
186 197 230 206 207 230 244 233 227 212 180 166 156 156 147 129 89 59 63 64 50 32 20 33 350 342 341 340 346 332 337 351 323 294 282 276 257 233 266 293 310 316 282 242
196 216 236 245 254 251 235 241 234 223 204 197 178 162 95 122 115 98 39 14 16 27 21 6 2 349 350 344 340 322 285 287 306 334 310 293 342 323 256 291 284 256 260 220
210 216 240 250 254 252 249 245 242 247 213 179 181 191 158 124 89 69 23 213 11 349 8 20 2 343 357 344 5 337 335 276 246 256 249 238 46 104 136 134 96 148 156 138
216 246 257 253 251 250 259 205 242 233 211 204 171 153 163 142 122 105 75 28 356 353 351 46 6 347 356 359 4 356 337 313 265 261 260 248 240 156 136 142 145 182 171 155
192 192 199 205 203 207 224 225 234 256 214 165 159 152 160 152 137 106 117 74 23 12 20 48 7 344 354 12 18 2 354 333 283 239 250 282 289 190 189 165 173 199 185 199
164 168 177 183 151 195 203 180 208 189 157 154 158 147 156 154 143 111 122 103 57 28 20 86 40 6 6 0 15 7 319 289 295 81 97 63 51 90 82 123 199 206 236 261
157 162 175 177 180 185 132 127 130 127 136 142 148 150 152 129 110 164 116 85 84 63 12 54 118 42 360 9 13 19 43 49 49 52 72 70 69 102 99 92 98 81 69 55
147 155 162 160 160 159 133 119 122 128 141 137 124 132 139 135 117 99 100 93 83 71 54 71 104 102 154 14 22 41 53 58 62 61 64 74 80 72 71 87 84 85 87 86
148 142 134 135 142 145 133 126 129 134 133 151 140 127 118 107 158 134 112 104 95 87 70 96 96 95 88 18 23 35 51 62 64 66 68 68 73 81 84 82 81 81 88 86
138 132 125 132 132 138 146 148 137 137 146 131 142 149 85 87 91 119 119 101 87 75 87 93 85 89 83 81 61 28 39 62 66 67 68 69 68 72 82 85 84 82 78 80
132 136 134 129 132 123 118 127 128 124 123 133 111 124 123 137 117 118 101 106 57 86 84 51 52 54 60 58 65 81 64 46 55 59 63 66 65 64 62 70 78 80 76 75
137 139 146 143 146 143 144 147 137 135 134 127 122 123 118 113 121 106 123 105 97 81 52 37 30 47 55 64 73 72 69 67 68 52 44 50 53 52 54 62 59 65 70 70
139 152 139 149 148 138 160 165 155 151 146 157 146 132 126 130 132 132 119 107 90 70 28 23 31 15 54 47 68 73 76 87 95 83 77 71 52 46 47 44 37 49 49 51